Willmar, MN

9:02 PM CDT on June 28, 2017 (GMT -0500)
Willmar

Weather History for KBDH - November, 2013

Change the Weather History Date:

Tuesday, November 19, 2013

  Actual Average (KBBB) Record (KBBB)
Temperature  
Mean Temperature 36 °F -  
Max Temperature 50 °F 37 °F 62 °F (1989)
Min Temperature 23 °F 21 °F 0 °F (1986)
Degree Days  
Heating Degree Days 28    
Moisture  
Dew Point 27 °F    
Average Humidity 67    
Maximum Humidity 86    
Minimum Humidity 46    
Precipitation  
Precipitation 0.00 in - - ()
Sea Level Pressure  
Sea Level Pressure 29.95 in    
Wind  
Wind Speed 15 mph (SE)    
Max Wind Speed 29 mph    
Max Gust Speed 38 mph    
Visibility 10 miles    
Events      
Averages and records for this station are not official NWS values.
T = Trace of Precipitation, MM = Missing Value Source: NWS Daily Summary

Daily Weather History Graph

Daily Weather History Graph

Search for Another Location

Airport or City:

Trip Planner

Search our weather history database for the weather conditions in past years. The results will help you decide how hot, cold, wet, or windy it might be!

Date:

Astronomy

Nov. 19, 2013 Rise Set
Actual Time 7:24 AM CST 4:47 PM CST
Civil Twilight 6:52 AM CST 5:19 PM CST
Nautical Twilight 6:16 AM CST 5:55 PM CST
Astronomical Twilight 5:41 AM CST 6:30 PM CST
Moon 6:38 PM CST (11/19) 9:05 AM CST (11/19)
Length of Visible Light 10h 27m
Length of Day
9h 23m
Waning Gibbous, 96% of the Moon is Illuminated
Nov 19
Waning Gibbous
Nov 25
Last Quarter
Dec 2
New
Dec 9
First Quarter
Dec 17
Full

Hourly Weather History & Observations

Time (CST) Temp. Windchill Dew Point Humidity Pressure Visibility Wind Dir Wind Speed Gust Speed Precip Events Conditions
12:15 AM 23.0 °F 14.7 °F 17.6 °F 80% 30.20 in 10.0 mi ESE 6.9 mph - N/A   Clear
12:35 AM 23.0 °F 13.9 °F 19.4 °F 86% 30.20 in 10.0 mi ESE 8.1 mph - N/A   Clear
12:55 AM 23.0 °F 14.7 °F 19.4 °F 86% 30.20 in 10.0 mi ESE 6.9 mph - N/A   Clear
1:15 AM 23.0 °F 13.9 °F 19.4 °F 86% 30.19 in 10.0 mi ESE 8.1 mph - N/A   Clear
1:35 AM 24.8 °F 16.1 °F 19.4 °F 80% 30.19 in 10.0 mi ESE 8.1 mph - N/A   Clear
1:55 AM 24.8 °F 15.3 °F 19.4 °F 80% 30.18 in 10.0 mi ESE 9.2 mph - N/A   Clear
2:16 AM 24.8 °F 15.3 °F 19.4 °F 80% 30.17 in 10.0 mi ESE 9.2 mph - N/A   Clear
2:35 AM 24.8 °F 14.6 °F 19.4 °F 80% 30.17 in 10.0 mi ESE 10.4 mph - N/A   Clear
2:55 AM 24.8 °F 14.0 °F 19.4 °F 80% 30.16 in 10.0 mi ESE 11.5 mph - N/A   Clear
3:16 AM 24.8 °F 14.0 °F 19.4 °F 80% 30.16 in 10.0 mi ESE 11.5 mph - N/A   Clear
3:35 AM 24.8 °F 14.0 °F 19.4 °F 80% 30.15 in 10.0 mi ESE 11.5 mph - N/A   Clear
3:55 AM 24.8 °F 14.0 °F 19.4 °F 80% 30.14 in 10.0 mi ESE 11.5 mph - N/A   Clear
4:16 AM 24.8 °F 12.9 °F 19.4 °F 80% 30.13 in 10.0 mi ESE 13.8 mph - N/A   Clear
4:35 AM 24.8 °F 12.9 °F 19.4 °F 80% 30.12 in 10.0 mi ESE 13.8 mph - N/A   Clear
4:55 AM 24.8 °F 13.4 °F 19.4 °F 80% 30.12 in 10.0 mi ESE 12.7 mph - N/A   Clear
5:15 AM 26.6 °F 14.7 °F 21.2 °F 80% 30.11 in 10.0 mi ESE 15.0 mph - N/A   Clear
5:35 AM 26.6 °F 14.3 °F 19.4 °F 74% 30.09 in 10.0 mi ESE 16.1 mph - N/A   Clear
5:55 AM 26.6 °F 14.3 °F 21.2 °F 80% 30.08 in 10.0 mi ESE 16.1 mph - N/A   Clear
6:15 AM 26.6 °F 14.7 °F 21.2 °F 80% 30.09 in 10.0 mi ESE 15.0 mph - N/A   Clear
6:35 AM 26.6 °F 14.3 °F 21.2 °F 80% 30.08 in 10.0 mi ESE 16.1 mph - N/A   Clear
6:55 AM 28.4 °F 17.0 °F 21.2 °F 74% 30.08 in 10.0 mi ESE 15.0 mph - N/A   Clear
7:15 AM 26.6 °F 13.8 °F 21.2 °F 80% 30.06 in 10.0 mi ESE 17.3 mph - N/A   Clear
7:35 AM 28.4 °F 15.8 °F 21.2 °F 74% 30.05 in 10.0 mi ESE 18.4 mph - N/A   Clear
7:55 AM 28.4 °F 15.8 °F 21.2 °F 74% 30.05 in 10.0 mi SE 18.4 mph 24.2 mph N/A   Clear
8:15 AM 30.2 °F 17.4 °F 24.8 °F 80% 30.04 in 10.0 mi SE 20.7 mph 27.6 mph N/A   Clear
8:35 AM 32.0 °F 18.9 °F 24.8 °F 75% 30.03 in 10.0 mi SE 24.2 mph 31.1 mph N/A   Clear
8:56 AM 32.0 °F 18.9 °F 24.8 °F 75% 30.02 in 10.0 mi SE 24.2 mph 31.1 mph N/A   Clear
9:15 AM 33.8 °F 21.9 °F 24.8 °F 70% 30.02 in 10.0 mi SE 21.9 mph - N/A   Clear
9:35 AM 33.8 °F 22.8 °F 24.8 °F 70% 30.01 in 10.0 mi SE 18.4 mph 25.3 mph N/A   Clear
9:56 AM 35.6 °F 24.5 °F 26.6 °F 70% 30.00 in 10.0 mi SE 20.7 mph 26.5 mph N/A   Clear
10:15 AM 35.6 °F 24.8 °F 26.6 °F 70% 29.99 in 10.0 mi SE 19.6 mph 25.3 mph N/A   Clear
10:35 AM 37.4 °F 27.2 °F 28.4 °F 70% 29.99 in 10.0 mi SSE 19.6 mph - N/A   Clear
10:56 AM 41.0 °F 32.2 °F 28.4 °F 61% 29.98 in 10.0 mi SSE 18.4 mph 26.5 mph N/A   Clear
11:15 AM 42.8 °F 34.0 °F 28.4 °F 57% 29.96 in 10.0 mi SSE 20.7 mph 28.8 mph N/A   Clear
11:35 AM 44.6 °F 36.1 °F 28.4 °F 53% 29.95 in 10.0 mi SSE 21.9 mph 25.3 mph N/A   Clear
11:55 AM 46.4 °F 39.0 °F 28.4 °F 50% 29.93 in 10.0 mi SSE 19.6 mph 26.5 mph N/A   Clear
12:15 PM 46.4 °F 39.5 °F 28.4 °F 50% 29.92 in 10.0 mi SSE 17.3 mph 24.2 mph N/A   Clear
12:35 PM 48.2 °F - 28.4 °F 46% 29.91 in 10.0 mi South 15.0 mph 29.9 mph N/A   Clear
12:55 PM 48.2 °F - 30.2 °F 50% 29.90 in 10.0 mi SSE 20.7 mph 29.9 mph N/A   Clear
1:15 PM 48.2 °F - 28.4 °F 46% 29.89 in 10.0 mi SSE 21.9 mph 29.9 mph N/A   Clear
1:35 PM 50.0 °F - 30.2 °F 47% 29.88 in 10.0 mi SSE 24.2 mph 31.1 mph N/A   Clear
1:55 PM 48.2 °F - 30.2 °F 50% 29.87 in 10.0 mi SSE 21.9 mph 32.2 mph N/A   Clear
2:15 PM 48.2 °F - 30.2 °F 50% 29.85 in 10.0 mi SSE 20.7 mph 27.6 mph N/A   Clear
2:35 PM 48.2 °F - 30.2 °F 50% 29.84 in 10.0 mi SSE 23.0 mph 27.6 mph N/A   Clear
2:55 PM 50.0 °F - 32.0 °F 50% 29.83 in 10.0 mi SSE 19.6 mph 26.5 mph N/A   Clear
3:15 PM 50.0 °F - 32.0 °F 50% 29.83 in 10.0 mi SSE 21.9 mph 28.8 mph N/A   Clear
3:35 PM 48.2 °F - 32.0 °F 54% 29.82 in 10.0 mi SSE 20.7 mph 27.6 mph N/A   Clear
3:55 PM 48.2 °F - 32.0 °F 54% 29.82 in 10.0 mi SSE 20.7 mph 27.6 mph N/A   Clear
4:15 PM 46.4 °F 39.0 °F 32.0 °F 57% 29.82 in 10.0 mi SSE 19.6 mph 28.8 mph N/A   Clear
4:35 PM 46.4 °F 38.3 °F 32.0 °F 57% 29.81 in 10.0 mi SE 23.0 mph 29.9 mph N/A   Clear
4:55 PM 46.4 °F 38.7 °F 32.0 °F 57% 29.81 in 10.0 mi SE 20.7 mph 27.6 mph N/A   Clear
5:15 PM 46.4 °F 38.7 °F 32.0 °F 57% 29.80 in 10.0 mi SE 20.7 mph 28.8 mph N/A   Clear
5:35 PM 44.6 °F 36.1 °F 33.8 °F 66% 29.80 in 10.0 mi SSE 21.9 mph 28.8 mph N/A   Clear
5:55 PM 44.6 °F 35.9 °F 33.8 °F 66% 29.80 in 10.0 mi SSE 23.0 mph 28.8 mph N/A   Clear
6:15 PM 44.6 °F 35.7 °F 33.8 °F 66% 29.80 in 10.0 mi SSE 24.2 mph 28.8 mph N/A   Clear
6:35 PM 44.6 °F 35.1 °F 33.8 °F 66% 29.79 in 10.0 mi SSE 27.6 mph 34.5 mph N/A   Clear
6:55 PM 44.6 °F 35.5 °F 33.8 °F 66% 29.78 in 10.0 mi SSE 25.3 mph 35.7 mph N/A   Clear
7:15 PM 44.6 °F 35.3 °F 33.8 °F 66% 29.78 in 10.0 mi SSE 26.5 mph 35.7 mph N/A   Clear
7:36 PM 44.6 °F 34.9 °F 33.8 °F 66% 29.79 in 10.0 mi SSE 28.8 mph 38.0 mph N/A   Clear
7:55 PM 44.6 °F 35.1 °F 33.8 °F 66% 29.79 in 10.0 mi SSE 27.6 mph 33.4 mph N/A   Clear
8:15 PM 44.6 °F 35.7 °F 33.8 °F 66% 29.79 in 10.0 mi SSE 24.2 mph 34.5 mph N/A   Clear
8:36 PM 44.6 °F 35.9 °F 33.8 °F 66% 29.79 in 10.0 mi SSE 23.0 mph 33.4 mph N/A   Clear
8:55 PM 44.6 °F 36.4 °F 33.8 °F 66% 29.79 in 10.0 mi SSE 20.7 mph 29.9 mph N/A   Clear
9:15 PM 44.6 °F 36.6 °F 32.0 °F 61% 29.79 in 10.0 mi SSE 19.6 mph 28.8 mph N/A   Clear
9:36 PM 44.6 °F 35.9 °F 32.0 °F 61% 29.79 in 10.0 mi SSE 23.0 mph 27.6 mph N/A   Clear
9:55 PM 44.6 °F 36.4 °F 32.0 °F 61% 29.79 in 10.0 mi SSE 20.7 mph 27.6 mph N/A   Clear
10:15 PM 44.6 °F 36.6 °F 32.0 °F 61% 29.79 in 10.0 mi SSE 19.6 mph 25.3 mph N/A   Clear
10:36 PM 44.6 °F 37.2 °F 32.0 °F 61% 29.79 in 10.0 mi SSE 17.3 mph 23.0 mph N/A   Clear
10:55 PM 44.6 °F 36.6 °F 30.2 °F 57% 29.79 in 10.0 mi SSE 19.6 mph 25.3 mph N/A   Clear
11:15 PM 44.6 °F 37.2 °F 30.2 °F 57% 29.79 in 10.0 mi SSE 17.3 mph 24.2 mph N/A   Clear
11:35 PM 44.6 °F 37.4 °F 30.2 °F 57% 29.79 in 10.0 mi SSE 16.1 mph 24.2 mph N/A   Clear
11:55 PM 44.6 °F 37.2 °F 30.2 °F 57% 29.79 in 10.0 mi SSE 17.3 mph 25.3 mph N/A   Clear